User: anonymous   Login
Location: Unspecified
(0.0000°N, 0.0000°E)
Time: 13:30:57
(UTC+01:00)
Language:

Cosmos 1733 Rocket - Orbit

View from above orbital plane
View from above orbital plane
View from above satellite
View from above satellite

Ground track
Ground track

The orbit data is extracted from the following two-line orbital elements,

1 16612U 86018B   17054.08794319  .00000104  00000-0  95195-5 0  9996
2 16612  82.5153  43.4761 0018055 164.8676 263.2518 14.84132401574533
Epoch (UTC): 23 February 2017 02:06:38
Eccentricity: 0.0018055
inclination: 82.5153°
perigee height: 603 km
apogee height: 629 km
right ascension of ascending node: 43.4761°
argument of perigee: 164.8676°
revolutions per day: 14.84132401
mean anomaly at epoch: 263.2518°
orbit number at epoch: 57453

The dashed part of the orbit path shows where the satellite is in the earth's shadow,  

DLR